Regional Weather Roundup
Issued by NWS

Home | Current Version | Previous Version | Text Only | Print | Product List | Glossary Off
Versions: 1 2 3 4 5 6 7 8 9 10 11 12 13 14 15 16 17 18 19 20 21 22 23 24 25 26 27 28 29 30 31 32 33 34 35 36 37 38 39 40 41 42 43 44 45 46 47 48 49 50

262
ASUS43 KLOT 270008
RWRIL

ILLINOIS REGIONAL WEATHER ROUNDUP
NATIONAL WEATHER SERVICE CHICAGO/ROMEOVILLE IL
700 PM CDT THU MAY 26 2016

NOTE: "FAIR" INDICATES FEW OR NO CLOUDS BELOW 12,000 FEET WITH NO
SIGNIFICANT WEATHER AND/OR OBSTRUCTIONS TO VISIBILITY.

* THESE STATIONS ARE NOT UNDER NWS QUALITY CONTROL. THEY ALSO MAY NOT
  REPORT WEATHER SUCH AS PRECIPITATION OR FOG.

ILZ001-002-007-009-015-016-024-270100-
NORTHWEST ILLINOIS

CITY           SKY/WX    TMP DP  RH WIND       PRES   REMARKS
MOLINE         CLOUDY    83  63  50 S5        29.81S HX  84
6HR MIN TEMP:  83; 6HR MAX TEMP:  88;

STERLING*      PTSUNNY   83  64  52 NW5       29.84R HX  84
SAVANNA*       CLOUDY    81  61  49 CALM      29.83S HX  82
$$

ILZ003-004-008-010-011-017-018-270100-
NORTH CENTRAL ILLINOIS

CITY           SKY/WX    TMP DP  RH WIND       PRES   REMARKS
ROCKFORD       PTSUNNY   81  62  52 SW5       29.86R HX  82
6HR MIN TEMP:  78; 6HR MAX TEMP:  84;

FREEPORT*      CLOUDY    78  60  53 NW5       29.85R
ROCHELLE*      MOSUNNY   80  64  59 NW6       29.85R HX  81
DE KALB*       MOSUNNY   79  66  64 CALM      29.86R HX  81
$$

ILZ005-006-012>014-019>023-270100-
NORTHEAST ILLINOIS

CITY           SKY/WX    TMP DP  RH WIND       PRES   REMARKS
CHICAGO-OHARE  PTSUNNY   81  63  54 W7        29.83R HX  82
6HR MIN TEMP:  78; 6HR MAX TEMP:  83;

CHICAGO-MIDWAY PTSUNNY   84  62  47 SW7       29.84R HX  85
6HR MIN TEMP:  78; 6HR MAX TEMP:  85;

AURORA         PTSUNNY   82  66  58 SW3       29.85R HX  84
6HR MIN TEMP:  78; 6HR MAX TEMP:  85;

LANSING*       SUNNY     82  61  49 S7        29.85R HX  82
JOLIET*        SUNNY     85  64  49 S6        29.84R HX  86
WAUKEGAN       SUNNY     81  63  54 SW5       29.83R HX  82
6HR MIN TEMP:  79; 6HR MAX TEMP:  82;

DUPAGE AIRPORT SUNNY     80  63  55 W6        29.85R HX  81
6HR MIN TEMP:  78; 6HR MAX TEMP:  84;

KANKAKEE*      MOSUNNY   82  63  52 SW10      29.87R HX  84
WHEELING       SUNNY     82  62  50 SW5       29.85R HX  83
6HR MIN TEMP:  79; 6HR MAX TEMP:  84;

MORRIS*        SUNNY     85  58  39 W7        29.83R HX  85
ROMEOVILLE*    MOSUNNY   85  58  41 SW8       29.85R HX  84
NORTHERLY ISL    N/A     82  60  47 S6          N/A  HX  82
NORTHERLY ISL    N/A     82  60  47 S6          N/A  HX  82
$$

LMZ740>746-270100-
SOUTHERN LAKE MICHIGAN

STATION/POSITION SKY/WX   TEMP    WIND        PRES    VSBY  WAVE
                          AIR SEA DIR/SP/G                  HT/PER
                          (F)     (DEG/KT/KT) (MB)    (MI)  (FT/S)
SOUTHERN BUOY              57 50  140/  8/  8 1009.7          0
WILMETTE HARBOR            63 58  140/  6/  8   N/A           1
HARRISON CRIB              81     190/  9/  9   N/A
BURNHAM HARBOR             82     170/  6/  9   N/A
CALUMET HARBOR                    180/ 10/ 15 1009.3F
BURNS HARBOR               80     190/ 10/ 13 1010.5F
MICHIGAN CITY              73     350/  3/  3   N/A
MICHIGAN CITY 6N           66 62   60/  2/  4   N/A           1
ST. JOSEPH                 69 64  110/  2/  2   N/A           1
$$

ILZ025>027-034>036-040-047-049-050-058-095>099-270100-
WEST-CENTRAL ILLINOIS

CITY           SKY/WX    TMP DP  RH WIND       PRES   REMARKS
QUINCY         CLOUDY    79  68  69 SE5       29.82R HX  81
GALESBURG*     CLOUDY    80  64  58 SE3       29.83S HX  81
MACOMB*        CLOUDY    79  69  70 SE6       29.83F HX  82
JACKSONVILLE*  PTSUNNY   78  67  68 S8        29.82F HX  81
PITTSFIELD*    CLOUDY    79  70  73 S8        29.84S HX  81
$$

ILZ028>032-037-038-041>044-048-051>054-059>061-270100-
CENTRAL ILLINOIS

CITY           SKY/WX    TMP DP  RH WIND       PRES   REMARKS
PONTIAC        MOSUNNY   85  67  55 S12       29.86R HX  87
BLOOMINGTON    MOSUNNY   78  72  82 S10       29.88R HX  80
DECATUR        CLOUDY    78  66  66 S12       29.89R HX  80
PEORIA         MOSUNNY   81  65  58 S8        29.83R HX  83
6HR MIN TEMP:  79; 6HR MAX TEMP:  85;

LACON*         MOSUNNY   80  63  55 CALM      29.83R HX  81
LINCOLN*       SUNNY     78  70  76 S9        29.86R HX  81
SPRINGFIELD    CLOUDY    79  69  71 S13       29.86R HX  81
6HR MIN TEMP:  79; 6HR MAX TEMP:  84;

TAYLORVILLE    SUNNY     74  67  78 S13       29.88R
6HR MIN TEMP:  74; 6HR MAX TEMP:  79;

$$

ILZ033-039-045-046-055>057-062-063-270100-
EAST-CENTRAL ILLINOIS

CITY           SKY/WX    TMP DP  RH WIND       PRES   REMARKS
CHAMPAIGN      CLOUDY    78  67  68 S13       29.90R HX  80
RANTOUL*       CLOUDY    81  69  67 S9        29.90R HX  84
MATTOON        MOSUNNY   73  64  73 S9        29.91R
PARIS*         CLOUDY    74  67  79 S7        29.93R
$$

ILZ079-100>102-270100-
SOUTHWEST ILLINOIS

CITY           SKY/WX    TMP DP  RH WIND       PRES   REMARKS
ALTON          PTSUNNY   73  64  73 S9        29.86F
BELLEVILLE     CLOUDY    73  68  85 E2        29.88S
CAHOKIA*       MOSUNNY   76  66  71 S9        29.87S
SPARTA*        CLOUDY    73  65  77 S3        29.91R
$$

ILZ064>066-069>071-074>076-080>082-084>086-088>090-092>094-270100-
SOUTH-CENTRAL ILLINOIS

CITY           SKY/WX    TMP DP  RH WIND       PRES   REMARKS
CARBONDALE     CLOUDY    73  65  75 S9        29.91R
6HR MIN TEMP:  65; 6HR MAX TEMP:  75; 6HR PCP:  0.08;

CAIRO*         CLOUDY    70  65  83 SE9       29.94R
EFFINGHAM*     CLOUDY    74  66  75 S6        29.93R
MARION         CLOUDY    72  68  88 SE5       29.94R
MT. VERNON     CLOUDY    72  63  73 CALM      29.92R
CENTRALIA*     CLOUDY    72  66  82 SW6       29.91R
SALEM*         MOSUNNY   74  64  69 S7        29.91R
METROPOLIS*    CLOUDY    71  68  92 SE8       29.95R
$$

ILZ067-068-072-073-078-083-087-091-270100-
SOUTHEAST ILLINOIS

CITY           SKY/WX    TMP DP  RH WIND       PRES   REMARKS
LAWRENCEVILLE  CLOUDY    71  67  87 S12       29.93R
FLORA*         CLOUDY    74  65  73 S3        29.92R
FAIRFIELD*     CLOUDY    71  65  80 NE3       29.89S
HARRISBURG*    MOSUNNY   72  65  79 SW10G16   29.92R
ROBINSON*      PTSUNNY   70  65  84 SE7       29.93R
CARMI*         CLOUDY    69  64  85 SE8       29.89R
$$

ABBREVIATIONS USED IN REMARKS
   TC - TEMPERATURE IN CELSIUS
  WCI - WIND CHILL INDEX
   HX - HEAT INDEX
  VSB - VISIBILITY
$$





USA.gov is the U.S. government's official web portal to all federal, state and local government web resources and services.